Torna al catalogo

HULIANWANG DIGUI-25

AttivoComunicazioniPO
NORAD 63692·PAYLOAD·🇨🇳 China

Lanciato Apr 28, 2025 da Wenchang Space Launch Site

Loading…

Prossimi Passaggi (prossime 24 ore)

TLE

AggiornatoSource: Space-Track

Epoca: Sep 14, 2026, 14:16 UTC

1 63692U 25086F   26257.59474254  .00000016  00000-0  22463-5 0  9998
2 63692  86.4971 282.8948 0002003  83.0903 277.0459 13.24413598 66693

Traccia HULIANWANG DIGUI-25 in tempo reale con AllMySat

Download on the App Store